Huron, SD

4:34 AM CDT on April 26, 2017 (GMT -0500)
Huron Regional

Weather History for KHON - March, 2014

Change the Weather History Date:

Wednesday, March 12, 2014

  Actual Average Record
Temperature  
Mean Temperature 39 °F 31 °F  
Max Temperature 53 °F 42 °F 74 °F (2015)
Min Temperature 24 °F 21 °F -16 °F (1956)
Degree Days  
Heating Degree Days 26 34  
Month to date heating degree days 510 431  
Since 1 July heating degree days 6830 6263  
Cooling Degree Days 0 0  
Month to date cooling degree days 0 0  
Year to date cooling degree days 0 0  
Moisture  
Dew Point 29 °F    
Average Humidity 71    
Maximum Humidity 100    
Minimum Humidity 41    
Precipitation  
Precipitation 0.00 in 0.04 in 1.21 in (1954)
Month to date precipitation 0.36 0.42  
Year to date precipitation 0.92 1.52  
Snow  
Snow 0.00 in 0.40 in 10.10 in (1962)
Month to date snowfall 3.5 4.0  
Since 1 July snowfall 25.2 35.0  
Snow Depth 0.00 in    
Sea Level Pressure  
Sea Level Pressure 30.09 in    
Wind  
Wind Speed 9 mph (WNW)    
Max Wind Speed 21 mph    
Max Gust Speed 26 mph    
Visibility 10 miles    
Events      
T = Trace of Precipitation, MM = Missing Value Source: NWS Daily Summary

Daily Weather History Graph

Daily Weather History Graph

Search for Another Location

Airport or City:

Trip Planner

Search our weather history database for the weather conditions in past years. The results will help you decide how hot, cold, wet, or windy it might be!

Date:

Astronomy

Mar. 12, 2014 Rise Set
Actual Time 7:50 AM CDT 7:35 PM CDT
Civil Twilight 7:21 AM CDT 8:04 PM CDT
Nautical Twilight 6:48 AM CDT 8:38 PM CDT
Astronomical Twilight 6:13 AM CDT 9:12 PM CDT
Moon 4:00 PM CDT (3/12) 5:30 AM CDT (3/12)
Length of Visible Light 12h 42m
Length of Day
11h 44m
Waxing Gibbous, 85% of the Moon is Illuminated
Mar 12
Waxing Gibbous
Mar 16
Full
Mar 23
Last Quarter
Mar 30
New
Apr 7
First Quarter

Hourly Weather History & Observations

Time (CDT) Temp. Windchill Dew Point Humidity Pressure Visibility Wind Dir Wind Speed Gust Speed Precip Events Conditions
12:55 AM 28.0 °F 20.0 °F 25.0 °F 88% 30.19 in 10.0 mi West 8.1 mph - N/A   Clear
1:55 AM 28.9 °F 21.1 °F 26.1 °F 89% 30.17 in 10.0 mi West 8.1 mph - N/A   Scattered Clouds
2:55 AM 28.0 °F 21.7 °F 26.1 °F 92% 30.17 in 10.0 mi WNW 5.8 mph - N/A   Mostly Cloudy
3:55 AM 28.9 °F 23.9 °F 27.0 °F 92% 30.16 in 10.0 mi West 4.6 mph - N/A   Overcast
4:55 AM 28.0 °F - 25.0 °F 88% 30.14 in 10.0 mi Calm Calm - N/A   Partly Cloudy
5:55 AM 25.0 °F - 24.1 °F 96% 30.14 in 9.0 mi Calm Calm - N/A   Clear
6:55 AM 25.0 °F 19.3 °F 24.1 °F 96% 30.14 in 7.0 mi South 4.6 mph - N/A   Clear
7:55 AM 27.0 °F 20.5 °F 24.1 °F 89% 30.15 in 10.0 mi West 5.8 mph - N/A   Clear
8:55 AM 30.0 °F 23.2 °F 26.1 °F 85% 30.15 in 10.0 mi WNW 6.9 mph - N/A   Clear
9:55 AM 34.0 °F 24.2 °F 28.9 °F 82% 30.16 in 10.0 mi NW 15.0 mph - N/A   Clear
10:55 AM 36.0 °F 26.7 °F 28.9 °F 76% 30.16 in 10.0 mi NW 15.0 mph - N/A   Clear
11:55 AM 39.0 °F 30.6 °F 30.0 °F 70% 30.14 in 10.0 mi NW 15.0 mph - N/A   Clear
12:55 PM 42.1 °F 36.1 °F 30.0 °F 62% 30.12 in 10.0 mi NNW 10.4 mph - N/A   Clear
1:55 PM 45.0 °F 38.9 °F 30.9 °F 58% 30.09 in 10.0 mi NW 12.7 mph 18.4 mph N/A   Clear
2:55 PM 48.9 °F - 28.9 °F 46% 30.07 in 10.0 mi WNW 11.5 mph 21.9 mph N/A   Clear
3:55 PM 50.0 °F - 28.0 °F 43% 30.04 in 10.0 mi WNW 10.4 mph 19.6 mph N/A   Clear
4:55 PM 53.1 °F - 30.9 °F 43% 30.01 in 10.0 mi WNW 15.0 mph 19.6 mph N/A   Partly Cloudy
5:55 PM 51.1 °F - 33.1 °F 50% 30.01 in 10.0 mi WNW 17.3 mph - N/A   Partly Cloudy
6:55 PM 48.0 °F - 35.1 °F 61% 30.01 in 10.0 mi West 9.2 mph - N/A   Clear
7:55 PM 42.1 °F 40.2 °F 32.0 °F 67% 30.01 in 10.0 mi WSW 3.5 mph - N/A   Clear
8:55 PM 39.9 °F 34.5 °F 32.0 °F 73% 30.01 in 10.0 mi SW 8.1 mph - N/A   Clear
9:55 PM 37.9 °F 32.1 °F 30.0 °F 73% 29.99 in 10.0 mi SW 8.1 mph - N/A   Clear
10:55 PM 37.0 °F 30.4 °F 28.9 °F 73% 29.97 in 10.0 mi WSW 9.2 mph - N/A   Scattered Clouds
11:55 PM 36.0 °F 29.0 °F 30.0 °F 79% 29.97 in 10.0 mi West 9.2 mph - N/A   Clear